Regional Weather Roundup
Issued by NWS Charleston, WV

Home | Current Version | Previous Version | Graphics & Text | Print | Product List | Glossary On
Versions: 1 2 3 4 5 6 7 8 9 10 11 12 13 14 15 16 17 18 19 20 21 22 23 24 25 26 27 28 29 30 31 32 33 34 35 36 37 38 39 40 41 42 43 44 45 46 47 48 49 50
000
ASUS41 KRLX 290510
RWRRLX
West Virginia Regional Weather Roundup
National Weather Service Charleston WV
1200 AM EST THU JAN 29 2015

Note: "fair" indicates few or no clouds below 12,000 feet with no
significant weather and/or obstructions to visibility.

WVZ003-290600-
Northern Panhandle of West Virginia

CITY           SKY/WX    TMP DP  RH WIND       PRES   REMARKS
WHEELING       MOCLDY    20  11  68 VRB3      30.25S
$$

WVZ009-290600-
Northwest West Virginia

CITY           SKY/WX    TMP DP  RH WIND       PRES   REMARKS
PARKERSBURG    MOCLDY    22  15  75 E6        30.28F
$$

WVZ006-290600-
Western West Virginia

CITY           SKY/WX    TMP DP  RH WIND       PRES   REMARKS
HUNTINGTON     PTCLDY    25  18  74 E3        30.21F
$$

WVZ015-290600-
West Central West Virginia

CITY           SKY/WX    TMP DP  RH WIND       PRES   REMARKS
CHARLESTON     PTCLDY    22  17  81 CALM      30.23F
$$

WVZ022-031-290600-
North Central West Virginia

CITY           SKY/WX    TMP DP  RH WIND       PRES   REMARKS
CLARKSBURG     PTCLDY    18  14  84 CALM      30.25F
MORGANTOWN     CLEAR     20   9  62 CALM      30.26F
$$

WVZ025-035-042-045-290600-
Southern West Virginia

CITY           SKY/WX    TMP DP  RH WIND       PRES   REMARKS
BECKLEY        CLEAR     24  12  60 SE8       30.21S
LOGAN            N/A     30  19  64 CALM      30.19F
BLUEFIELD      CLEAR     27  14  58 CALM      30.21S
LEWISBURG      PTCLDY    21  15  79 N5        30.25F
$$

WVZ047-290600-
Northern Mountains of West Virginia

CITY           SKY/WX    TMP DP  RH WIND       PRES   REMARKS
ELKINS         PTCLDY    13  11  92 CALM      30.24F
$$

WVZ052-290600-
Eastern Panhandle of West Virginia

CITY           SKY/WX    TMP DP  RH WIND       PRES   REMARKS
MARTINSBURG    PTCLDY    16   5  62 CALM      30.33F
PETERSBURG     PTCLDY    14  10  85 CALM      30.33F
$$


USA.gov is the U.S. government's official web portal to all federal, state and local government web resources and services.